This demonstration page uses our WeatherBlox Daily Observations layout. Learn more.

41.55636, -103.73856

Hourly Observations for September 28, 2020

Temp ( °F °C ) Dew Point ( °F °C ) Humidity (%) Winds ( mph kmh ) Pressure ( in mb ) Visibility ( mi km ) Precip ( " mm )
12:58 am 00:58 Clear 38 3.3 30 -1 74 74 WNW 14 22 30.35 1028 10 16.0934 0 0
1:58 am 01:58 Clear 36 2.2 29 -1.5 77 77 WNW 13 20 30.37 1029 10 16.0934 0 0
2:58 am 02:58 Clear 34 1.1 28 -2 80 80 W 9 15 30.38 1029 10 16.0934 0 0
3:58 am 03:58 Clear 36 2.4 27 -2.8 69 69 WNW 14 22 30.38 1029 10 16.0934 0 0
4:58 am 04:58 Mostly Cloudy 34 1.1 27 -2.9 75 75 W 7 11 30.39 1029 10 16.0934 0 0
5:58 am 05:58 Clear 33 0.4 26 -3.5 75 75 W 7 11 30.4 1030 10 16.0934 0 0
6:58 am 06:58 Mostly Sunny 36 2.2 26 -3.3 67 67 WNW 15 24 30.44 1031 10 16.0934 0 0
7:58 am 07:58 Sunny 39 4 27 -3 61 61 WNW 12 19 30.44 1031 10 16.0934 0 0
8:58 am 08:58 Sunny 44 6.7 27 -2.6 52 52 NW 15 24 30.42 1030 10 16.0934 0 0
9:58 am 09:58 Sunny 50 10 25 -3.8 38 38 NW 21 33 30.42 1030 10 16.0934 0 0
10:58 am 10:58 Sunny 53 11.8 24 -4.6 32 32 NNW 23 37 30.4 1030 10 16.0934 0 0
11:58 am 11:58 Mostly Sunny 56 13.2 21 -6.2 26 26 NNW 24 39 30.37 1029 10 16.0934 0 0
12:58 pm 12:58 Mostly Sunny 57 14.1 21 -6 25 25 NW 23 37 30.34 1027 10 16.0934 0 0
1:58 pm 13:58 Sunny 59 15 21 -6 23 23 NW 17 28 30.32 1027 10 16.0934 0 0
2:58 pm 14:58 Sunny 60 15.7 20 -6.7 21 21 NW 18 30 30.29 1026 10 16.0934 0 0
3:58 pm 15:58 Sunny 61 16 18 -7.6 19 19 NNW 22 35 30.28 1025 10 16.0934 0 0
4:58 pm 16:58 Sunny 61 16 16 -8.8 17 17 NNW 25 41 30.26 1025 10 16.0934 0 0
5:58 pm 17:58 Sunny 59 14.9 16 -9 18 18 NNW 15 24 30.27 1025 10 16.0934 0 0
6:58 pm 18:58 Clear 52 11.1 17 -8.5 25 25 NW 8 13 30.28 1025 10 16.0934 0 0
7:58 pm 19:58 Clear 47 8.4 17 -8.4 30 30 WSW 3 6 30.3 1026 10 16.0934 0 0
8:58 pm 20:58 Clear 44 6.8 16 -8.8 32 32 SSW 7 11 30.29 1026 10 16.0934 0 0
9:58 pm 21:58 Clear 43 6.1 16 -9.1 33 33 SW 7 11 30.28 1025 10 16.0934 0 0
10:58 pm 22:58 Clear 43 6.2 16 -9 33 33 SSW 8 13 30.26 1025 10 16.0934 0 0
11:56 pm 23:56 Clear 39 4.1 17 -8.6 39 39 WNW 3 6 30.26 1025 10 16.0934 0 0

Powered by AerisWeather